Location: ??????????
(54.7560°N, 39.1389°E)
Time: 01:27:34
(UTC+00:00)

Cosmos 2344 - Pass Details

Date: 19 May 2025
Orbit: 1200 x 3042 km, 63.3° (Epoch: 13 June)

Event Time Altitude Azimuth Distance (km) Brightness Sun altitude
Rises 19:16:33 0° 251° (WSW) 4,225 6.5 -10.8°
Reaches altitude 10° 19:19:24 10° 255° (WSW) 3,183 5.9 -11.0°
Maximum altitude 19:26:34 59° 335° (NNW) 1,383 4.2 -11.5°
Drops below altitude 10° 19:34:15 10° 55° (NE) 3,403 5.9 -11.9°
Sets 19:37:24 0° 60° (ENE) 4,540 6.6 -12.1°
